Preview of NWS' New Version of Forecast
This preview is not operational and should not be used for support decisions.

Regional Weather Roundup (RWR)

Issued by National Weather Service (NWS)

                            
000
ASUS43 KMKX 211711
RWRWI 

WISCONSIN REGIONAL WEATHER ROUNDUP
NATIONAL WEATHER SERVICE MILWAUKEE/SULLIVAN WI
1100 AM CST THU FEB 21 2019

NOTE: "FAIR" INDICATES FEW OR NO CLOUDS BELOW 12,000 FEET WITH NO
SIGNIFICANT WEATHER AND/OR OBSTRUCTIONS TO VISIBILITY.

WIZ001-002-006>008-014>016-023>028-211800-
NORTHWEST WISCONSIN
  
CITY           SKY/WX    TMP DP  RH WIND       PRES   REMARKS
SUPERIOR ARPT  FAIR      26  16  68 W8        30.05R WCI  17          
ASHLAND        CLOUDY    26  19  74 SW12      30.03R WCI  16          
HAYWARD        CLOUDY    20  16  84 SW8       30.05R FOG     WCI  10  
SIREN          CLOUDY    20  15  81 W10       30.09R WCI   9          
CUMBERLAND     LGT SNOW  18  10  73 SW8       30.07R WCI   7          
RICE LAKE      LGT SNOW  17   6  61 SW7       30.10R WCI   8          
CHETEK         LGT SNOW  17  11  78 SW6       30.10R WCI   8          
LADYSMITH      LGT SNOW  18  13  79 SW7       30.07R WCI   9          
EAU CLAIRE     PTSUNNY   16  10  77 SW12      30.11R WCI   3          
MENOMONIE      FLURRIES  15   8  72 SW6       30.12R WCI   6          
NEW RICHMOND   CLOUDY    17  10  72 SW8       30.11R WCI   7          
OSCEOLA        CLOUDY    17  13  82 W8        30.15R WCI   7          
$$
 
WIZ003>005-009-010-017-018-211800-
NORTH CENTRAL WISCONSIN
  
CITY           SKY/WX    TMP DP  RH WIND       PRES   REMARKS
MANITOWISH WTR NOT AVBL                                               
ARBOR VITAE    LGT SNOW  22  17  82 W13       29.98R WCI  10          
WOODRUFF       LGT SNOW  22  17  82 W13       29.98R WCI  10          
RHINELANDER    PTSUNNY   24  15  68 W13       29.99R WCI  12          
EAGLE RIVER    FLURRIES  23  16  76 W9        29.96R WCI  13          
LAND O LAKES   FLURRIES  25  19  77 W7        29.96R WCI  17          
PHILLIPS       LGT SNOW  17  13  84 SW8       30.02R WCI   6          
TOMAHAWK       CLOUDY    20  13  72 W9        30.02R WCI  10          
MEDFORD        LGT SNOW  15   8  76 NW8       30.04R WCI   4          
MERRILL        CLOUDY    22  12  65 W10       30.04R WCI  11          
$$
 
WIZ029-030-035-036-043>047-211800-
CENTRAL WISCONSIN
  
CITY           SKY/WX    TMP DP  RH WIND       PRES   REMARKS
WAUSAU         FAIR      17   9  70 W14       30.04R WCI   3          
MOSINEE        SUNNY     18  10  73 W9        30.06R WCI   6          
MARSHFIELD     FAIR      15   9  76 VRB7      30.07R WCI   5          
STEVENS POINT  FAIR      17   9  70 W10       30.09R HAZE    WCI   5  
WAUPACA        FAIR      25  13  59 W12       30.09R WCI  14          
WAUTOMA        FAIR      27  13  55 W10       30.10R WCI  17          
WISC RAPIDS    FAIR      18   7  62 SW9       30.10R WCI   7          
CAMP DOUGLAS   NOT AVBL                                               
$$
 
WIZ011>013-019>022-031-037>040-048>050-211800-
NORTHEAST WISCONSIN
  
CITY           SKY/WX    TMP DP  RH WIND       PRES   REMARKS
ANTIGO         FAIR      20  12  71 W9        30.01R WCI   9          
SHAWANO        FAIR      31  15  53 W12       30.06R WCI  21          
OCONTO         FAIR      26  15  64 W12       30.04R WCI  15          
STURGEON BAY   FAIR      25  15  66 W14       30.01R WCI  13          
GREEN BAY      FAIR      24  12  60 W14       30.07R WCI  12          
MANITOWOC      FAIR      24  14  65 W17G24    30.08R WCI  11          
APPLETON       SUNNY     21   9  58 W12       30.06R WCI   9          
CLINTONVILLE   FAIR      23  11  60 W8        30.07R WCI  14          
OSHKOSH        FAIR      22  12  65 W9        30.09R WCI  12          
$$
 
WIZ032>034-041-042-053>061-211800-
SOUTHWEST WISCONSIN
  
CITY           SKY/WX    TMP DP  RH WIND       PRES   REMARKS
LA CROSSE      FAIR      20   9  62 CALM      30.16R                  
SPARTA         FAIR      19  10  66 CALM      30.15R                  
VIROQUA        FAIR      20  11  69 NW7       30.11R WCI  11          
BOSCOBEL       FAIR      23  10  57 W7        30.18R WCI  15          
PRAIRIE DU CHI FAIR      20   8  60 W6        30.19R WCI  12          
PLATTEVILLE    FAIR      22  14  71 W10       30.18R WCI  11          
$$

WIZ056-057-062-063-064-067-068-211800-
SOUTH CENTRAL WISCONSIN
  
CITY           SKY/WX    TMP DP  RH WIND       PRES   REMARKS
REEDSBURG      FAIR      21  10  62 W12G18    30.12R WCI   9          
BARABOO/DELLS  FAIR      22  10  61 W9G16     30.11S WCI  11          
LONE ROCK      FAIR      22  11  62 W8        30.16R WCI  12          
MINERAL POINT  FAIR      23  14  68 SW8       30.15R WCI  14          
MADISON        FAIR      23  11  60 VRB6      30.14R WCI  16          
MIDDLETON      FAIR      26  13  58 W12       30.15R WCI  16          
WATERTOWN      FAIR      24  13  62 SW10      30.14R WCI  14          
MONROE         FAIR      23  13  64 MISG      30.15R                  
JANESVILLE     MOSUNNY   27  16  63 W13       30.17R WCI  16          
$$
 
WIZ051-052-058>065-066-070>072-211800-
SOUTHEAST WISCONSIN
  
CITY           SKY/WX    TMP DP  RH WIND       PRES   REMARKS
MILWAUKEE      FAIR      28  13  53 W14G22    30.14R WCI  17          
WAUKESHA       SUNNY     25  12  58 W14       30.14R WCI  13          
MILWAUKEE/TIMM SUNNY     27  10  50 W17       30.14R WCI  14          
RACINE         FAIR      26  14  60 W12G26    30.17R WCI  16          
KENOSHA        FAIR      28  16  60 W16G23    30.16R WCI  16          
FOND DU LAC    FAIR      21  11  65 W10       30.09R WCI  10          
SHEBOYGAN      FAIR      22  13  68 W13       30.09R WCI  10          
WEST BEND      FAIR      23  14  68 W12G18    30.11R WCI  12          
JUNEAU         FAIR      21  12  68 SW12      30.13R WCI   9          
$$

LSZ147-162-211800-
LAKE SUPERIOR
  
STATION/POSITION TIME  TEMP    WIND        PRES    WAVE
                       AIR SEA DIR/SP/G            HT/PER
                 (UTC) (F)     (DEG/KT/KT) (MB)    (FT/S)
DEVILS ISLAND    1700   22     260/ 14/ 17 1018.0R
SAXON HARBOR     1630   26     230/  7/ 12 1016.3R
$$
 
LMZ867-665-643>646-211800-
LAKE MICHIGAN
  
STATION/POSITION TIME  TEMP    WIND        PRES    WAVE
                       AIR SEA DIR/SP/G            HT/PER
                 (UTC) (F)     (DEG/KT/KT) (MB)    (FT/S)
CHAMBERS ISLAND  1540   26     230/  8/ 15 1014.2R
NORTHPORT PIER   1640   28     260/  4/  8 1015.9R
KEWAUNEE LAKESHO 1636   22     270/ 11/ 16 1016.6R
SHEBOYGAN LAKESH 1700   23     270/ 11/ 13 1020.1R
PORT WASHINGTON  1640   27     260/  8/ 14 1021.0R
MILWAUKEE LAKESH 1650   26     240/  4/  6   N/A
KENOSHA   LAKESH 1700   27     260/ 12/ 16 1021.7
$$

TC  - TEMPERATURE IN CELSIUS
VSB - VISIBILITY IN STATUTE MILES
WCI - WIND CHILL INDEX
HX  - HEAT INDEX